Time,TemperatureF,DewpointF,PressureIn,WindDirection,WindDirectionDegrees,WindSpeedMPH,WindSpeedGustMPH,Humidity,HourlyPrecipIn,Conditions,Clouds,dailyrainin,SoftwareType,DateUTC
2013-02-28 00:04:00,32.8,32.8,29.66,NNW,333,8.0,8.0,100,0.00,,,0.00,Wunderground v.1.15,2013-02-28 06:04:00,
2013-02-28 00:14:00,32.8,32.8,29.66,NW,309,7.0,7.0,100,0.00,,,0.00,Wunderground v.1.15,2013-02-28 06:14:00,
2013-02-28 00:24:00,32.9,32.9,29.67,NW,308,7.0,7.0,100,0.00,,,0.00,Wunderground v.1.15,2013-02-28 06:24:00,
2013-02-28 00:34:00,32.9,32.9,29.68,NNW,330,7.0,12.0,100,0.00,,,0.00,Wunderground v.1.15,2013-02-28 06:34:00,
2013-02-28 00:44:00,32.9,32.9,29.68,NW,312,6.0,6.0,100,0.00,,,0.00,Wunderground v.1.15,2013-02-28 06:44:00,
2013-02-28 00:54:00,32.9,32.9,29.68,NW,304,7.0,9.0,100,0.00,,,0.00,Wunderground v.1.15,2013-02-28 06:54:00,
2013-02-28 01:04:00,32.9,32.9,29.69,NW,318,7.0,13.0,100,0.00,,,0.00,Wunderground v.1.15,2013-02-28 07:04:00,
2013-02-28 01:14:00,33.1,33.1,29.69,NNW,344,5.0,10.0,100,0.00,,,0.00,Wunderground v.1.15,2013-02-28 07:14:00,
2013-02-28 01:24:00,33.1,33.1,29.69,NNW,332,6.0,6.0,100,0.00,,,0.00,Wunderground v.1.15,2013-02-28 07:24:00,
2013-02-28 01:34:00,33.1,33.1,29.69,NW,311,6.0,8.0,100,0.00,,,0.00,Wunderground v.1.15,2013-02-28 07:34:00,
2013-02-28 01:44:00,33.2,33.2,29.69,NNW,347,7.0,7.0,100,0.00,,,0.00,Wunderground v.1.15,2013-02-28 07:44:00,
2013-02-28 01:54:00,33.2,33.2,29.69,NW,323,5.0,6.0,100,0.00,,,0.00,Wunderground v.1.15,2013-02-28 07:54:00,
2013-02-28 02:04:00,33.2,33.2,29.69,NW,311,5.0,6.0,100,0.00,,,0.00,Wunderground v.1.15,2013-02-28 08:04:00,
2013-02-28 02:14:00,33.2,33.2,29.69,WNW,292,6.0,6.0,100,0.00,,,0.00,Wunderground v.1.15,2013-02-28 08:14:00,
2013-02-28 02:24:00,33.2,33.2,29.69,North,350,6.0,6.0,100,0.00,,,0.00,Wunderground v.1.15,2013-02-28 08:24:00,
2013-02-28 02:34:00,33.2,33.2,29.69,NNW,340,6.0,6.0,100,0.00,,,0.00,Wunderground v.1.15,2013-02-28 08:34:00,
2013-02-28 02:44:00,33.4,33.4,29.69,North,0,7.0,7.0,100,0.00,,,0.00,Wunderground v.1.15,2013-02-28 08:44:00,
2013-02-28 02:54:00,33.2,33.2,29.70,NNW,344,7.0,7.0,100,0.00,,,0.00,Wunderground v.1.15,2013-02-28 08:54:00,
2013-02-28 03:04:00,33.1,33.1,29.70,NNW,339,6.0,7.0,100,0.00,,,0.00,Wunderground v.1.15,2013-02-28 09:04:00,
2013-02-28 03:14:00,33.1,33.1,29.70,NW,311,6.0,6.0,100,0.00,,,0.00,Wunderground v.1.15,2013-02-28 09:14:00,
2013-02-28 03:24:00,33.1,33.1,29.71,NNW,346,5.0,11.0,100,0.00,,,0.00,Wunderground v.1.15,2013-02-28 09:24:00,
2013-02-28 03:34:00,33.2,33.2,29.71,NW,320,7.0,9.0,100,0.00,,,0.00,Wunderground v.1.15,2013-02-28 09:34:00,
2013-02-28 03:44:00,33.2,33.2,29.71,NW,311,6.0,11.0,100,0.00,,,0.00,Wunderground v.1.15,2013-02-28 09:44:00,
2013-02-28 03:54:00,33.2,33.2,29.72,NNW,346,6.0,10.0,100,0.00,,,0.00,Wunderground v.1.15,2013-02-28 09:54:00,
2013-02-28 04:04:00,33.2,33.2,29.72,North,0,8.0,8.0,100,0.00,,,0.00,Wunderground v.1.15,2013-02-28 10:04:00,
2013-02-28 04:14:00,33.2,33.2,29.72,NW,308,6.0,6.0,100,0.00,,,0.00,Wunderground v.1.15,2013-02-28 10:14:00,
2013-02-28 04:24:00,33.2,33.2,29.73,NNW,344,7.0,7.0,100,0.00,,,0.00,Wunderground v.1.15,2013-02-28 10:24:00,
2013-02-28 04:34:00,33.4,33.4,29.73,NNW,337,7.0,7.0,100,0.00,,,0.00,Wunderground v.1.15,2013-02-28 10:34:00,
2013-02-28 04:44:00,33.4,33.4,29.73,North,352,6.0,7.0,100,0.00,,,0.00,Wunderground v.1.15,2013-02-28 10:44:00,
2013-02-28 04:54:00,33.4,33.4,29.74,North,353,7.0,7.0,100,0.00,,,0.00,Wunderground v.1.15,2013-02-28 10:54:00,
2013-02-28 05:04:00,33.4,33.4,29.75,NNW,344,7.0,7.0,100,0.00,,,0.00,Wunderground v.1.15,2013-02-28 11:04:00,
2013-02-28 05:14:00,33.2,33.2,29.75,NNE,16,5.0,5.0,100,0.00,,,0.01,Wunderground v.1.15,2013-02-28 11:14:00,
2013-02-28 05:24:00,32.9,32.9,29.75,North,0,8.0,11.0,100,0.00,,,0.01,Wunderground v.1.15,2013-02-28 11:24:00,
2013-02-28 05:34:00,33.2,33.2,29.32,NNW,335,6.0,12.0,100,0.00,,,0.01,Wunderground v.1.15,2013-02-28 11:34:00,
2013-02-28 05:44:00,33.4,33.4,29.32,North,3,7.0,7.0,100,0.00,,,0.01,Wunderground v.1.15,2013-02-28 11:44:00,
2013-02-28 05:54:00,33.4,33.4,29.76,NNE,18,8.0,10.0,100,0.00,,,0.01,Wunderground v.1.15,2013-02-28 11:54:00,
2013-02-28 06:04:00,33.5,33.5,29.76,NNW,342,8.0,8.0,100,0.00,,,0.01,Wunderground v.1.15,2013-02-28 12:04:00,
2013-02-28 06:14:00,33.5,33.5,29.77,NNW,340,6.0,10.0,100,0.00,,,0.01,Wunderground v.1.15,2013-02-28 12:14:00,
2013-02-28 06:24:00,33.4,33.4,29.77,NW,319,6.0,6.0,100,0.00,,,0.02,Wunderground v.1.15,2013-02-28 12:24:00,
2013-02-28 06:34:00,33.4,33.4,29.77,NNW,336,6.0,6.0,100,0.00,,,0.02,Wunderground v.1.15,2013-02-28 12:34:00,
2013-02-28 06:44:00,33.4,33.4,29.77,NNW,328,7.0,12.0,100,0.00,,,0.02,Wunderground v.1.15,2013-02-28 12:44:00,
2013-02-28 06:54:00,33.4,33.4,29.78,NW,323,8.0,8.0,100,0.00,,,0.02,Wunderground v.1.15,2013-02-28 12:54:00,
2013-02-28 07:04:00,33.5,33.5,29.79,NNW,339,7.0,7.0,100,0.00,,,0.02,Wunderground v.1.15,2013-02-28 13:04:00,
2013-02-28 07:14:00,33.7,33.7,29.79,NW,316,9.0,9.0,100,0.00,,,0.03,Wunderground v.1.15,2013-02-28 13:14:00,
2013-02-28 07:24:00,33.7,33.7,29.80,NNW,344,10.0,18.0,100,0.00,,,0.03,Wunderground v.1.15,2013-02-28 13:24:00,
2013-02-28 07:34:00,33.7,33.7,29.80,North,359,11.0,11.0,100,0.00,,,0.03,Wunderground v.1.15,2013-02-28 13:34:00,
2013-02-28 07:44:00,33.7,33.7,29.80,NNW,346,10.0,11.0,100,0.00,,,0.04,Wunderground v.1.15,2013-02-28 13:44:00,
2013-02-28 07:54:00,33.7,33.7,29.81,NNW,347,9.0,9.0,100,0.00,,,0.04,Wunderground v.1.15,2013-02-28 13:54:00,
2013-02-28 08:04:00,33.5,33.5,29.82,North,8,8.0,8.0,100,0.04,,,0.05,Wunderground v.1.15,2013-02-28 14:04:00,
2013-02-28 08:14:00,33.7,33.7,29.82,North,354,9.0,17.0,100,0.00,,,0.05,Wunderground v.1.15,2013-02-28 14:14:00,
2013-02-28 08:24:00,33.8,33.8,29.83,North,4,10.0,11.0,100,0.00,,,0.06,Wunderground v.1.15,2013-02-28 14:24:00,
2013-02-28 08:34:00,33.8,33.8,29.83,North,0,7.0,7.0,100,0.05,,,0.07,Wunderground v.1.15,2013-02-28 14:34:00,
2013-02-28 08:44:00,33.8,33.8,29.83,NNW,347,8.0,8.0,100,0.04,,,0.07,Wunderground v.1.15,2013-02-28 14:44:00,
2013-02-28 08:54:00,33.8,33.8,29.83,North,356,8.0,12.0,100,0.00,,,0.08,Wunderground v.1.15,2013-02-28 14:54:00,
2013-02-28 09:04:00,33.8,33.8,29.84,NNW,332,9.0,9.0,100,0.04,,,0.09,Wunderground v.1.15,2013-02-28 15:04:00,
2013-02-28 09:14:00,33.7,33.7,29.84,NW,326,8.0,10.0,100,0.04,,,0.09,Wunderground v.1.15,2013-02-28 15:14:00,
2013-02-28 09:24:00,33.7,33.7,29.84,NNW,335,9.0,11.0,100,0.00,,,0.10,Wunderground v.1.15,2013-02-28 15:24:00,
2013-02-28 09:34:00,33.8,33.8,29.85,NW,326,9.0,9.0,100,0.00,,,0.10,Wunderground v.1.15,2013-02-28 15:34:00,
2013-02-28 09:44:00,34.0,34.0,29.85,NNW,328,9.0,9.0,100,0.04,,,0.11,Wunderground v.1.15,2013-02-28 15:44:00,
2013-02-28 09:54:00,34.0,34.0,29.85,NNW,339,9.0,9.0,100,0.00,,,0.11,Wunderground v.1.15,2013-02-28 15:54:00,
2013-02-28 10:04:00,34.0,34.0,29.86,North,359,9.0,9.0,100,0.00,,,0.12,Wunderground v.1.15,2013-02-28 16:04:00,
2013-02-28 10:14:00,34.1,34.1,29.86,NNW,340,6.0,6.0,100,0.00,,,0.13,Wunderground v.1.15,2013-02-28 16:14:00,
2013-02-28 10:24:00,34.1,34.1,29.86,North,353,8.0,14.0,100,0.00,,,0.13,Wunderground v.1.15,2013-02-28 16:24:00,
2013-02-28 10:34:00,34.1,34.1,29.87,North,357,8.0,8.0,100,0.00,,,0.13,Wunderground v.1.15,2013-02-28 16:34:00,
2013-02-28 10:44:00,34.1,34.1,29.87,NNW,342,10.0,15.0,100,0.00,,,0.14,Wunderground v.1.15,2013-02-28 16:44:00,
2013-02-28 10:54:00,34.1,34.1,29.87,North,359,9.0,12.0,100,0.00,,,0.15,Wunderground v.1.15,2013-02-28 16:54:00,
2013-02-28 11:04:00,34.4,34.4,29.88,North,0,9.0,9.0,100,0.00,,,0.15,Wunderground v.1.15,2013-02-28 17:04:00,
2013-02-28 11:14:00,34.6,34.6,29.88,North,0,7.0,7.0,100,0.00,,,0.16,Wunderground v.1.15,2013-02-28 17:14:00,
2013-02-28 11:24:00,34.6,34.6,29.88,North,10,9.0,10.0,100,0.00,,,0.16,Wunderground v.1.15,2013-02-28 17:24:00,
2013-02-28 11:34:00,34.6,34.6,29.88,NNW,328,8.0,8.0,100,0.04,,,0.17,Wunderground v.1.15,2013-02-28 17:34:00,
2013-02-28 11:44:00,34.7,34.7,29.88,North,3,8.0,8.0,100,0.00,,,0.17,Wunderground v.1.15,2013-02-28 17:44:00,
2013-02-28 11:54:00,34.9,34.9,29.88,North,0,7.0,7.0,100,0.00,,,0.17,Wunderground v.1.15,2013-02-28 17:54:00,
2013-02-28 12:04:00,34.9,34.9,29.88,NNW,333,6.0,6.0,100,0.00,,,0.18,Wunderground v.1.15,2013-02-28 18:04:00,
2013-02-28 12:14:00,34.7,34.7,29.88,NNW,342,7.0,7.0,100,0.00,,,0.18,Wunderground v.1.15,2013-02-28 18:14:00,
2013-02-28 12:24:00,34.6,34.6,29.89,North,359,6.0,6.0,100,0.00,,,0.18,Wunderground v.1.15,2013-02-28 18:24:00,
2013-02-28 12:34:00,34.6,34.6,29.89,North,6,6.0,6.0,100,0.00,,,0.18,Wunderground v.1.15,2013-02-28 18:34:00,
2013-02-28 12:44:00,34.9,34.9,29.89,NW,318,4.0,7.0,100,0.00,,,0.18,Wunderground v.1.15,2013-02-28 18:44:00,
2013-02-28 12:54:00,34.6,34.6,29.89,WNW,295,7.0,7.0,100,0.00,,,0.18,Wunderground v.1.15,2013-02-28 18:54:00,
2013-02-28 13:04:00,34.4,34.4,29.90,North,0,9.0,9.0,100,0.00,,,0.19,Wunderground v.1.15,2013-02-28 19:04:00,
2013-02-28 13:14:00,34.1,34.1,29.90,North,0,9.0,9.0,100,0.00,,,0.19,Wunderground v.1.15,2013-02-28 19:14:00,
2013-02-28 13:24:00,34.1,34.1,29.90,NNE,24,10.0,10.0,100,0.00,,,0.19,Wunderground v.1.15,2013-02-28 19:24:00,
2013-02-28 13:34:00,34.1,34.1,29.90,NNW,344,8.0,10.0,100,0.00,,,0.19,Wunderground v.1.15,2013-02-28 19:34:00,
2013-02-28 13:44:00,34.0,34.0,29.90,North,357,10.0,10.0,100,0.00,,,0.19,Wunderground v.1.15,2013-02-28 19:44:00,
2013-02-28 13:54:00,33.5,33.5,29.91,NNW,336,11.0,11.0,100,0.00,,,0.19,Wunderground v.1.15,2013-02-28 19:54:00,
2013-02-28 14:04:00,33.4,33.4,29.91,North,0,12.0,17.0,100,0.00,,,0.19,Wunderground v.1.15,2013-02-28 20:04:00,
2013-02-28 14:14:00,33.4,33.4,29.91,North,0,13.0,13.0,100,0.00,,,0.19,Wunderground v.1.15,2013-02-28 20:14:00,
2013-02-28 14:24:00,33.2,33.2,29.92,North,359,14.0,14.0,100,0.00,,,0.19,Wunderground v.1.15,2013-02-28 20:24:00,
2013-02-28 14:34:00,33.4,33.1,29.92,North,0,12.0,13.0,99,0.00,,,0.19,Wunderground v.1.15,2013-02-28 20:34:00,
2013-02-28 14:44:00,33.4,32.9,29.92,North,0,11.0,18.0,98,0.00,,,0.19,Wunderground v.1.15,2013-02-28 20:44:00,
2013-02-28 14:54:00,33.4,32.6,29.93,NNW,333,11.0,11.0,97,0.00,,,0.19,Wunderground v.1.15,2013-02-28 20:54:00,
2013-02-28 15:04:00,33.2,32.4,29.93,North,0,11.0,14.0,97,0.00,,,0.19,Wunderground v.1.15,2013-02-28 21:04:00,
2013-02-28 15:14:00,33.1,32.1,29.93,North,354,11.0,16.0,96,0.00,,,0.19,Wunderground v.1.15,2013-02-28 21:14:00,
2013-02-28 15:24:00,32.9,31.6,29.94,NNW,329,12.0,14.0,95,0.00,,,0.19,Wunderground v.1.15,2013-02-28 21:24:00,
2013-02-28 15:34:00,32.9,31.4,29.95,NNW,347,12.0,16.0,94,0.00,,,0.19,Wunderground v.1.15,2013-02-28 21:34:00,
2013-02-28 15:44:00,33.1,31.3,29.95,NNW,343,13.0,14.0,93,0.00,,,0.19,Wunderground v.1.15,2013-02-28 21:44:00,
2013-02-28 15:54:00,33.1,31.0,29.96,North,8,11.0,11.0,92,0.00,,,0.19,Wunderground v.1.15,2013-02-28 21:54:00,
2013-02-28 16:04:00,33.1,31.0,29.97,NNW,340,12.0,12.0,92,0.00,,,0.19,Wunderground v.1.15,2013-02-28 22:04:00,
2013-02-28 16:14:00,32.8,30.7,29.97,NNW,330,11.0,11.0,92,0.00,,,0.19,Wunderground v.1.15,2013-02-28 22:14:00,
2013-02-28 16:24:00,32.7,30.9,29.97,North,356,10.0,13.0,93,0.00,,,0.19,Wunderground v.1.15,2013-02-28 22:24:00,
2013-02-28 16:34:00,32.5,30.7,29.98,North,353,12.0,17.0,93,0.00,,,0.19,Wunderground v.1.15,2013-02-28 22:34:00,
2013-02-28 16:44:00,32.2,30.9,29.98,North,356,13.0,13.0,95,0.00,,,0.19,Wunderground v.1.15,2013-02-28 22:44:00,
2013-02-28 16:54:00,31.9,30.9,29.98,North,0,11.0,11.0,96,0.00,,,0.19,Wunderground v.1.15,2013-02-28 22:54:00,
2013-02-28 17:04:00,31.6,30.8,29.99,North,0,12.0,13.0,97,0.00,,,0.19,Wunderground v.1.15,2013-02-28 23:04:00,
2013-02-28 17:14:00,31.5,30.7,29.99,North,0,10.0,17.0,97,0.00,,,0.19,Wunderground v.1.15,2013-02-28 23:14:00,
2013-02-28 17:24:00,31.3,30.5,30.00,North,0,11.0,11.0,97,0.00,,,0.19,Wunderground v.1.15,2013-02-28 23:24:00,
2013-02-28 17:34:00,31.2,30.4,30.01,North,4,11.0,11.0,97,0.00,,,0.20,Wunderground v.1.15,2013-02-28 23:34:00,
2013-02-28 17:44:00,31.0,29.7,30.01,NNE,23,11.0,11.0,95,0.00,,,0.20,Wunderground v.1.15,2013-02-28 23:44:00,
2013-02-28 17:54:00,31.2,29.4,30.01,North,0,10.0,10.0,93,0.00,,,0.20,Wunderground v.1.15,2013-02-28 23:54:00,
2013-02-28 18:04:00,31.2,29.1,30.02,North,3,10.0,10.0,92,0.00,,,0.20,Wunderground v.1.15,2013-03-01 00:04:00,
2013-02-28 18:14:00,31.3,29.0,30.02,NW,319,8.0,12.0,91,0.00,,,0.20,Wunderground v.1.15,2013-03-01 00:14:00,
2013-02-28 18:24:00,31.3,28.4,30.02,North,11,10.0,10.0,89,0.00,,,0.20,Wunderground v.1.15,2013-03-01 00:24:00,
2013-02-28 18:34:00,31.5,28.1,30.03,NNW,336,10.0,10.0,87,0.00,,,0.20,Wunderground v.1.15,2013-03-01 00:34:00,
2013-02-28 18:44:00,31.5,28.1,30.03,NNW,328,9.0,9.0,87,0.00,,,0.20,Wunderground v.1.15,2013-03-01 00:44:00,
2013-02-28 18:54:00,31.5,28.1,30.03,North,0,8.0,12.0,87,0.00,,,0.20,Wunderground v.1.15,2013-03-01 00:54:00,
2013-02-28 19:04:00,31.5,27.8,30.03,North,1,9.0,9.0,86,0.00,,,0.20,Wunderground v.1.15,2013-03-01 01:04:00,
2013-02-28 19:14:00,31.5,27.8,30.03,North,352,9.0,10.0,86,0.00,,,0.20,Wunderground v.1.15,2013-03-01 01:14:00,
2013-02-28 19:24:00,31.5,27.5,30.03,North,0,12.0,24.0,85,0.00,,,0.20,Wunderground v.1.15,2013-03-01 01:24:00,
2013-02-28 19:34:00,31.3,27.3,30.03,North,354,15.0,15.0,85,0.00,,,0.20,Wunderground v.1.15,2013-03-01 01:34:00,
2013-02-28 19:44:00,31.2,27.5,30.03,NNE,25,12.0,13.0,86,0.00,,,0.20,Wunderground v.1.15,2013-03-01 01:44:00,
2013-02-28 19:54:00,31.0,27.9,30.02,North,1,12.0,12.0,88,0.00,,,0.20,Wunderground v.1.15,2013-03-01 01:54:00,
2013-02-28 20:04:00,30.9,27.8,30.02,North,0,10.0,10.0,88,0.00,,,0.20,Wunderground v.1.15,2013-03-01 02:04:00,
2013-02-28 20:14:00,30.9,28.0,30.02,North,354,11.0,11.0,89,0.00,,,0.20,Wunderground v.1.15,2013-03-01 02:14:00,
2013-02-28 20:24:00,30.9,28.0,30.02,North,0,11.0,12.0,89,0.00,,,0.20,Wunderground v.1.15,2013-03-01 02:24:00,
2013-02-28 20:34:00,30.9,28.0,30.02,North,0,10.0,13.0,89,0.00,,,0.20,Wunderground v.1.15,2013-03-01 02:34:00,
2013-02-28 20:44:00,31.0,28.1,30.02,North,359,12.0,12.0,89,0.00,,,0.20,Wunderground v.1.15,2013-03-01 02:44:00,
2013-02-28 20:54:00,30.9,28.0,30.02,North,0,9.0,16.0,89,0.00,,,0.20,Wunderground v.1.15,2013-03-01 02:54:00,
2013-02-28 21:04:00,30.9,27.8,30.03,NNW,346,10.0,13.0,88,0.00,,,0.20,Wunderground v.1.15,2013-03-01 03:04:00,
2013-02-28 21:14:00,30.7,27.3,30.03,North,4,11.0,14.0,87,0.00,,,0.20,Wunderground v.1.15,2013-03-01 03:14:00,
2013-02-28 21:24:00,30.9,27.2,30.03,North,7,11.0,11.0,86,0.00,,,0.20,Wunderground v.1.15,2013-03-01 03:24:00,
2013-02-28 21:34:00,30.9,27.2,30.03,North,354,11.0,14.0,86,0.00,,,0.20,Wunderground v.1.15,2013-03-01 03:34:00,
2013-02-28 21:44:00,30.9,27.2,30.03,North,0,11.0,11.0,86,0.00,,,0.20,Wunderground v.1.15,2013-03-01 03:44:00,
2013-02-28 21:54:00,30.7,27.0,30.03,North,0,9.0,9.0,86,0.00,,,0.20,Wunderground v.1.15,2013-03-01 03:54:00,
2013-02-28 22:04:00,30.7,27.3,30.03,NNW,343,8.0,19.0,87,0.00,,,0.20,Wunderground v.1.15,2013-03-01 04:04:00,
2013-02-28 22:14:00,30.6,27.2,30.03,North,0,10.0,11.0,87,0.00,,,0.20,Wunderground v.1.15,2013-03-01 04:14:00,
2013-02-28 22:24:00,30.4,27.0,30.03,NNE,30,9.0,9.0,87,0.00,,,0.20,Wunderground v.1.15,2013-03-01 04:24:00,
2013-02-28 22:34:00,30.3,27.2,30.03,North,6,9.0,9.0,88,0.00,,,0.20,Wunderground v.1.15,2013-03-01 04:34:00,
2013-02-28 22:44:00,30.1,27.3,30.03,North,0,9.0,14.0,89,0.00,,,0.20,Wunderground v.1.15,2013-03-01 04:44:00,
2013-02-28 22:54:00,30.0,27.7,30.03,NW,313,10.0,10.0,91,0.00,,,0.20,Wunderground v.1.15,2013-03-01 04:54:00,
2013-02-28 23:04:00,29.8,27.8,30.03,West,281,10.0,10.0,92,0.00,,,0.20,Wunderground v.1.15,2013-03-01 05:04:00,
2013-02-28 23:14:00,29.7,27.9,30.03,NNW,343,7.0,7.0,93,0.00,,,0.20,Wunderground v.1.15,2013-03-01 05:14:00,
2013-02-28 23:24:00,29.7,28.4,30.03,NNW,339,8.0,8.0,95,0.00,,,0.20,Wunderground v.1.15,2013-03-01 05:24:00,
2013-02-28 23:34:00,29.7,28.4,30.03,NNW,344,7.0,7.0,95,0.00,,,0.20,Wunderground v.1.15,2013-03-01 05:34:00,
2013-02-28 23:44:00,29.7,28.4,30.03,NW,306,4.0,5.0,95,0.00,,,0.20,Wunderground v.1.15,2013-03-01 05:44:00,
2013-02-28 23:54:00,29.7,28.4,30.03,North,353,5.0,7.0,95,0.00,,,0.20,Wunderground v.1.15,2013-03-01 05:54:00,